sat.trackr.live / text

‹ back to catalog

STARLINK-36951

NORAD 67990 · 2026-039E

PAYLOAD ACTIVE UNKNOWN

§ Identity

Operator
Country
US
Launch date
2026-02-27
Launch site
AFETR
Launch vehicle
Mass (kg)
RCS (m²)

Purposes: comms

External: N2YO · Heavens-Above · Gunter

§ Orbital elements

Epoch: 2026-05-24T13:16:27.263712Z

Period
94.27 min
Inclination
42.9988°
Eccentricity
0.0001070
Mean motion
15.27586391 rev/d
Perigee alt
482.3 km
Apogee alt
483.8 km
Semi-major
6,861.2 km
B*
5.3807e-4
RAAN
340.6782°
Arg perigee
271.7911°
Mean anomaly
88.2818°
Rev number
1,330

§ Raw data

STARLINK-369511 67990U 26039E   26144.55309333  .00014577  00000+0  53807-3 0  99982 67990  42.9988 340.6782 0001070 271.7911  88.2818 15.27586391 13308

JSON: /api/v1/satellites/67990 · /tle

For live sub-satellite position, see the globe view (requires WebGL).

§ Visibility from observer

Set your observer location to see the next 7 days of passes ≥ 10°. The values pass through the URL so the page stays shareable.

No JS? Fill the form by hand. The geolocation button needs JavaScript.